EFW52R EGKK-LPMA

Flight info

Callsign EFW52R
Flight time N/A
Altitude 33000
Route IMVUR N63 SAM M195 LORKU DCT POZOF/N0448F350 DCT LOTEE DCT PINEK DCT VERAM DCT TELMU DCT PECKY DCT LIDRO
Aircraft A321/M-SDE3FGHIRWY/LB1

Departure

Time N/A
Airport London Gatwick Airport (EGKK)

Arrival

Time 2026-05-06 18:14
Airport Cristiano Ronaldo International Airport (LPMA)
Time Latitude Longitude Altitude Speed Heading
2026-05-06 16:54 40.28427 -10.26929 35018 ft 433 kts 220°
2026-05-06 16:54 40.26028 -10.29406 35021 ft 433 kts 220°
2026-05-06 16:55 40.21323 -10.34259 35020 ft 434 kts 220°
2026-05-06 16:55 40.16577 -10.39141 35018 ft 434 kts 220°
2026-05-06 16:56 40.11828 -10.44025 35023 ft 435 kts 220°
2026-05-06 16:56 40.07075 -10.48904 35028 ft 435 kts 220°
2026-05-06 16:57 40.02314 -10.53779 35032 ft 435 kts 220°
2026-05-06 16:57 39.97553 -10.58650 35020 ft 435 kts 220°
2026-05-06 16:58 39.92782 -10.63518 35017 ft 436 kts 220°
2026-05-06 16:58 39.88778 -10.67600 35021 ft 436 kts 220°
2026-05-06 16:59 39.84023 -10.72441 35033 ft 437 kts 220°
2026-05-06 16:59 39.79230 -10.77310 35035 ft 437 kts 220°
2026-05-06 17:00 39.74434 -10.82176 35019 ft 438 kts 221°
2026-05-06 17:00 39.69629 -10.87030 35034 ft 438 kts 220°
2026-05-06 17:01 39.64829 -10.91885 35044 ft 438 kts 221°
2026-05-06 17:01 39.60022 -10.96741 35034 ft 438 kts 221°
2026-05-06 17:02 39.55197 -11.01589 35030 ft 440 kts 221°
2026-05-06 17:02 39.50356 -11.06445 35032 ft 440 kts 221°
2026-05-06 17:03 39.45508 -11.11295 35031 ft 440 kts 221°
2026-05-06 17:03 39.40661 -11.16148 35042 ft 440 kts 221°
2026-05-06 17:04 39.35812 -11.20989 35045 ft 441 kts 221°
2026-05-06 17:04 39.30963 -11.25833 35052 ft 441 kts 221°
2026-05-06 17:05 39.26110 -11.30668 35051 ft 441 kts 221°
2026-05-06 17:05 39.21255 -11.35498 35030 ft 441 kts 221°
2026-05-06 17:06 39.16415 -11.40293 35033 ft 442 kts 221°
2026-05-06 17:06 39.11537 -11.45125 35042 ft 443 kts 221°
2026-05-06 17:07 39.06648 -11.49949 35046 ft 443 kts 221°
2026-05-06 17:07 39.01752 -11.54774 35050 ft 443 kts 221°
2026-05-06 17:08 38.96863 -11.59603 35037 ft 443 kts 221°
2026-05-06 17:08 38.91972 -11.64427 35052 ft 443 kts 221°
2026-05-06 17:09 38.87074 -11.69232 35057 ft 443 kts 221°
2026-05-06 17:09 38.82171 -11.74026 35059 ft 443 kts 221°
2026-05-06 17:10 38.77266 -11.78815 35067 ft 443 kts 221°
2026-05-06 17:10 38.72366 -11.83598 35053 ft 442 kts 221°
2026-05-06 17:11 38.67474 -11.88368 35062 ft 442 kts 221°
2026-05-06 17:11 38.62584 -11.93125 35065 ft 441 kts 221°
2026-05-06 17:12 38.57694 -11.97872 35065 ft 441 kts 221°
2026-05-06 17:12 38.52805 -12.02608 35064 ft 441 kts 221°
2026-05-06 17:13 38.47916 -12.07341 35031 ft 442 kts 221°
2026-05-06 17:13 38.43011 -12.12076 35038 ft 442 kts 221°
2026-05-06 17:14 38.38097 -12.16810 35043 ft 443 kts 221°
2026-05-06 17:14 38.33181 -12.21542 35055 ft 443 kts 221°
2026-05-06 17:15 38.28259 -12.26277 35060 ft 443 kts 221°
2026-05-06 17:15 38.23371 -12.30980 35041 ft 444 kts 221°
2026-05-06 17:16 38.18437 -12.35695 35057 ft 444 kts 221°
2026-05-06 17:16 38.13501 -12.40405 35063 ft 444 kts 221°
2026-05-06 17:17 38.08562 -12.45126 35050 ft 445 kts 222°
2026-05-06 17:17 38.03606 -12.49845 35053 ft 446 kts 221°
2026-05-06 17:18 37.98636 -12.54566 35055 ft 447 kts 221°
2026-05-06 17:18 37.93657 -12.59287 35055 ft 447 kts 221°
2026-05-06 17:19 37.88679 -12.64011 35062 ft 447 kts 221°
2026-05-06 17:19 37.83693 -12.68731 35070 ft 448 kts 221°
2026-05-06 17:20 37.78699 -12.73440 35073 ft 448 kts 221°
2026-05-06 17:20 37.73702 -12.78153 35066 ft 448 kts 222°
2026-05-06 17:21 37.68696 -12.82870 35068 ft 449 kts 221°
2026-05-06 17:21 37.63707 -12.87552 35069 ft 450 kts 221°
2026-05-06 17:22 37.58675 -12.92270 35073 ft 451 kts 221°
2026-05-06 17:22 37.53636 -12.96977 35078 ft 451 kts 221°
2026-05-06 17:23 37.48595 -13.01693 35080 ft 451 kts 221°
2026-05-06 17:23 37.43558 -13.06403 35072 ft 451 kts 221°
2026-05-06 17:24 37.38514 -13.11107 35084 ft 451 kts 221°
2026-05-06 17:24 37.33469 -13.15798 35065 ft 452 kts 222°
2026-05-06 17:25 37.28410 -13.20498 35068 ft 453 kts 222°
2026-05-06 17:25 37.23335 -13.25194 35071 ft 453 kts 222°
2026-05-06 17:26 37.18252 -13.29890 35053 ft 454 kts 222°
2026-05-06 17:26 37.13170 -13.34590 35068 ft 454 kts 222°
2026-05-06 17:27 37.08075 -13.39282 35080 ft 455 kts 222°
2026-05-06 17:27 37.02975 -13.43973 35085 ft 455 kts 222°
2026-05-06 17:28 36.97876 -13.48659 35086 ft 455 kts 222°
2026-05-06 17:28 36.92767 -13.53340 35045 ft 456 kts 222°
2026-05-06 17:29 36.87649 -13.58029 35065 ft 457 kts 222°
2026-05-06 17:29 36.82517 -13.62728 35069 ft 458 kts 222°
2026-05-06 17:30 36.77370 -13.67410 35074 ft 459 kts 221°
2026-05-06 17:30 36.72010 -13.71789 35082 ft 462 kts 217°
2026-05-06 17:31 36.66473 -13.75891 35067 ft 463 kts 216°
2026-05-06 17:31 36.60932 -13.79979 35084 ft 463 kts 217°
2026-05-06 17:32 36.55435 -13.84145 35089 ft 462 kts 218°
2026-05-06 17:32 36.49994 -13.88323 35058 ft 463 kts 218°
2026-05-06 17:33 36.44498 -13.92530 35064 ft 465 kts 218°
2026-05-06 17:33 36.38977 -13.96723 35055 ft 466 kts 218°
2026-05-06 17:34 36.33444 -14.00904 35074 ft 466 kts 218°
2026-05-06 17:34 36.27902 -14.05085 35080 ft 466 kts 218°
2026-05-06 17:35 36.22360 -14.09265 35086 ft 466 kts 218°
2026-05-06 17:35 36.16816 -14.13437 35092 ft 467 kts 218°
2026-05-06 17:36 36.08491 -14.19692 35082 ft 467 kts 218°
2026-05-06 17:36 36.02941 -14.23866 35058 ft 468 kts 218°
2026-05-06 17:37 35.97372 -14.28043 35060 ft 469 kts 218°
2026-05-06 17:37 35.91788 -14.32223 35069 ft 470 kts 218°
2026-05-06 17:38 35.86195 -14.36399 35065 ft 470 kts 218°
2026-05-06 17:38 35.80589 -14.40569 35085 ft 471 kts 218°
2026-05-06 17:39 35.74981 -14.44739 35090 ft 471 kts 218°
2026-05-06 17:39 35.69372 -14.48902 35092 ft 471 kts 218°
2026-05-06 17:40 35.63761 -14.53073 35102 ft 471 kts 218°
2026-05-06 17:40 35.58184 -14.57212 35081 ft 471 kts 217°
2026-05-06 17:41 35.52549 -14.61356 35061 ft 473 kts 218°
2026-05-06 17:41 35.46908 -14.65514 35072 ft 473 kts 218°
2026-05-06 17:42 35.41263 -14.69678 35082 ft 474 kts 218°
2026-05-06 17:42 35.35606 -14.73838 35092 ft 474 kts 218°
2026-05-06 17:43 35.29943 -14.77994 35078 ft 475 kts 217°
2026-05-06 17:43 35.24274 -14.82146 35086 ft 475 kts 217°
2026-05-06 17:44 35.18596 -14.86292 35097 ft 475 kts 217°
2026-05-06 17:44 35.12922 -14.90445 35102 ft 476 kts 217°
2026-05-06 17:45 35.07244 -14.94592 35078 ft 476 kts 218°
2026-05-06 17:45 35.01552 -14.98734 35088 ft 476 kts 218°
2026-05-06 17:46 34.95854 -15.02871 35096 ft 477 kts 218°
2026-05-06 17:46 34.90155 -15.07014 35101 ft 477 kts 218°
2026-05-06 17:47 34.85372 -15.10478 35102 ft 477 kts 218°
2026-05-06 17:47 34.79698 -15.14578 35087 ft 478 kts 217°
2026-05-06 17:48 34.73983 -15.18699 35098 ft 478 kts 217°
2026-05-06 17:48 34.68267 -15.22820 35106 ft 478 kts 217°
2026-05-06 17:49 34.62551 -15.26935 35107 ft 478 kts 217°
2026-05-06 17:49 34.56830 -15.31050 35106 ft 478 kts 217°
2026-05-06 17:50 34.51105 -15.35153 35092 ft 478 kts 217°
2026-05-06 17:50 34.45383 -15.39248 35106 ft 478 kts 217°
2026-05-06 17:51 34.39660 -15.43350 35111 ft 478 kts 217°
2026-05-06 17:51 34.33933 -15.47442 35109 ft 478 kts 217°
2026-05-06 17:52 34.28209 -15.51528 35113 ft 478 kts 217°
2026-05-06 17:52 34.22479 -15.55611 35096 ft 478 kts 217°
2026-05-06 17:53 34.16750 -15.59688 35103 ft 478 kts 217°
2026-05-06 17:53 34.11019 -15.63758 35108 ft 478 kts 217°
2026-05-06 17:54 34.05280 -15.67819 35093 ft 478 kts 217°
2026-05-06 17:54 33.99539 -15.71879 35103 ft 479 kts 217°
2026-05-06 17:55 33.93793 -15.75938 35096 ft 478 kts 217°
2026-05-06 17:55 33.88053 -15.80000 34608 ft 480 kts 217°
2026-05-06 17:56 33.85159 -15.82046 33636 ft 485 kts 216°
2026-05-06 17:56 33.82250 -15.84095 32775 ft 486 kts 216°
2026-05-06 17:56 33.79326 -15.86148 31877 ft 488 kts 216°
2026-05-06 17:56 33.76384 -15.88214 30925 ft 492 kts 216°
2026-05-06 17:57 33.73416 -15.90303 29896 ft 497 kts 216°
2026-05-06 17:57 33.70425 -15.92404 28816 ft 500 kts 216°
2026-05-06 17:57 33.67415 -15.94515 27780 ft 501 kts 215°
2026-05-06 17:57 33.64417 -15.96652 26734 ft 502 kts 216°
2026-05-06 17:58 33.61445 -15.98871 25569 ft 506 kts 217°
2026-05-06 17:58 33.58521 -16.01136 24457 ft 508 kts 218°
2026-05-06 17:58 33.55570 -16.03464 23427 ft 507 kts 218°
2026-05-06 17:58 33.52632 -16.05778 22505 ft 501 kts 217°
2026-05-06 17:59 33.49726 -16.08038 21655 ft 495 kts 217°
2026-05-06 17:59 33.46849 -16.10246 20798 ft 489 kts 216°
2026-05-06 17:59 33.44003 -16.12412 20080 ft 480 kts 216°
2026-05-06 17:59 33.41196 -16.14541 19242 ft 475 kts 216°
2026-05-06 18:00 33.38439 -16.16631 18593 ft 464 kts 216°
2026-05-06 18:00 33.35733 -16.18682 17756 ft 457 kts 216°
2026-05-06 18:00 33.33105 -16.20674 16535 ft 438 kts 216°
2026-05-06 18:00 33.30572 -16.22596 15928 ft 425 kts 216°
2026-05-06 18:01 33.28098 -16.24483 15221 ft 420 kts 216°
2026-05-06 18:01 33.25652 -16.26352 14523 ft 415 kts 216°
2026-05-06 18:01 33.23234 -16.28196 13934 ft 408 kts 216°
2026-05-06 18:01 33.20858 -16.30002 13255 ft 404 kts 216°
2026-05-06 18:02 33.18495 -16.31796 12608 ft 400 kts 215°
2026-05-06 18:02 33.16159 -16.33566 11979 ft 395 kts 215°
2026-05-06 18:02 33.13864 -16.35306 11385 ft 386 kts 215°
2026-05-06 18:02 33.11650 -16.36978 11228 ft 367 kts 215°
2026-05-06 18:03 33.09578 -16.38537 11025 ft 337 kts 215°
2026-05-06 18:03 33.07678 -16.39964 10685 ft 311 kts 215°
2026-05-06 18:03 33.05888 -16.41316 10341 ft 300 kts 216°
2026-05-06 18:03 33.04135 -16.42647 10086 ft 298 kts 216°
2026-05-06 18:04 33.02394 -16.43971 9939 ft 297 kts 216°
2026-05-06 18:04 33.00649 -16.45295 9805 ft 297 kts 216°
2026-05-06 18:04 32.98907 -16.46612 9673 ft 296 kts 216°
2026-05-06 18:04 32.97167 -16.47924 9542 ft 295 kts 215°
2026-05-06 18:05 32.95431 -16.49231 9416 ft 295 kts 215°
2026-05-06 18:05 32.93698 -16.50537 9283 ft 295 kts 216°
2026-05-06 18:05 32.92090 -16.51978 9048 ft 294 kts 225°
2026-05-06 18:05 32.90565 -16.53608 8572 ft 294 kts 225°
2026-05-06 18:06 32.89059 -16.55216 8015 ft 288 kts 225°
2026-05-06 18:06 32.87607 -16.56766 7727 ft 275 kts 225°
2026-05-06 18:06 32.86211 -16.58253 7566 ft 265 kts 225°
2026-05-06 18:06 32.84850 -16.59706 7436 ft 262 kts 225°
2026-05-06 18:07 32.83487 -16.61168 7156 ft 266 kts 225°
2026-05-06 18:07 32.82065 -16.62571 6940 ft 264 kts 218°
2026-05-06 18:07 32.80452 -16.63595 6734 ft 263 kts 204°
2026-05-06 18:07 32.78717 -16.64312 6381 ft 264 kts 201°
2026-05-06 18:08 32.76983 -16.65013 6048 ft 262 kts 201°
2026-05-06 18:08 32.75259 -16.65710 5681 ft 261 kts 201°
2026-05-06 18:08 32.73546 -16.66401 5246 ft 259 kts 201°
2026-05-06 18:08 32.71830 -16.67096 4507 ft 262 kts 201°
2026-05-06 18:09 32.70105 -16.67796 3848 ft 260 kts 200°
2026-05-06 18:09 32.68454 -16.68463 3693 ft 247 kts 200°
2026-05-06 18:09 32.66874 -16.69101 3582 ft 233 kts 201°
2026-05-06 18:09 32.65399 -16.69697 3487 ft 214 kts 200°
2026-05-06 18:10 32.64045 -16.70248 3387 ft 197 kts 201°
2026-05-06 18:10 32.62866 -16.70991 2942 ft 189 kts 219°
2026-05-06 18:10 32.61942 -16.72049 2461 ft 181 kts 233°
2026-05-06 18:10 32.61322 -16.73244 2259 ft 161 kts 247°
2026-05-06 18:11 32.60969 -16.74463 2165 ft 152 kts 261°
2026-05-06 18:11 32.60846 -16.75688 2087 ft 148 kts 272°
2026-05-06 18:11 32.60934 -16.76891 2015 ft 146 kts 284°
2026-05-06 18:11 32.61229 -16.78033 1930 ft 144 kts 298°
2026-05-06 18:12 32.61774 -16.79013 1728 ft 142 kts 315°
2026-05-06 18:12 32.62521 -16.79757 1542 ft 140 kts 331°
2026-05-06 18:12 32.63394 -16.80209 1368 ft 138 kts 347°
2026-05-06 18:12 32.64338 -16.80347 1184 ft 138 kts
2026-05-06 18:13 32.65294 -16.80319 1062 ft 136 kts
2026-05-06 18:13 32.66241 -16.80295 892 ft 135 kts
2026-05-06 18:13 32.67160 -16.80065 669 ft 135 kts 20°
2026-05-06 18:13 32.67970 -16.79514 518 ft 136 kts 34°
2026-05-06 18:14 32.68663 -16.78753 319 ft 136 kts 41°
2026-05-06 18:14 32.69330 -16.77975 179 ft 130 kts 41°
2026-05-06 18:14 32.69342 -16.77962 177 ft 0 kts 42°